| time (UTC) | temp F | wind direction | speed knots | gust knots | rain 1hr in | rain 24hr in | rain mn in | humidity % | barometer mb |
| 20260906145229 | 73 | 69 | 2.6 | 4.3 | 0.00 | 0.00 | 0.00 | 87 | 1023.0 |
| 20260906144724 | 73 | 48 | 4.3 | 4.3 | 0.00 | 0.00 | 0.00 | 86 | 1022.6 |
| 20260906144213 | 73 | 64 | 2.6 | 4.3 | 0.00 | 0.00 | 0.00 | 88 | 1023.0 |
| 20260906143712 | 73 | 39 | 2.6 | 2.6 | 0.00 | 0.00 | 0.00 | 86 | 1023.0 |
| 20260906143210 | 72 | 59 | 1.7 | 2.6 | 0.00 | 0.00 | 0.00 | 88 | 1022.6 |
| 20260906142709 | 73 | 58 | 3.5 | 5.2 | 0.00 | 0.00 | 0.00 | 88 | 1022.6 |
| 20260906142205 | 72 | 55 | 1.7 | 2.6 | 0.00 | 0.00 | 0.00 | 87 | 1023.0 |
| 20260906141703 | 72 | 58 | 0.9 | 0.9 | 0.00 | 0.00 | 0.00 | 88 | 1022.6 |
| 20260906141158 | 72 | 40 | 2.6 | 4.3 | 0.00 | 0.00 | 0.00 | 90 | 1023.0 |
| 20260906140657 | 71 | 90 | 1.7 | 1.7 | 0.00 | 0.00 | 0.00 | 91 | 1022.6 |
| 20260906140153 | 71 | 109 | 3.5 | 5.2 | 0.00 | 0.00 | 0.00 | 91 | 1022.6 |
| 20260906135649 | 71 | 63 | 0.9 | 0.9 | 0.00 | 0.00 | 0.00 | 92 | 1022.6 |
| 20260906135146 | 70 | 50 | 1.7 | 2.6 | 0.00 | 0.00 | 0.00 | 91 | 1022.6 |
| 20260906134641 | 71 | 57 | 2.6 | 5.2 | 0.00 | 0.00 | 0.00 | 91 | 1022.6 |
| 20260906134136 | 70 | 55 | 4.3 | 6.1 | 0.00 | 0.00 | 0.00 | 91 | 1023.0 |
| 20260906133631 | 70 | 44 | 1.7 | 2.6 | 0.00 | 0.00 | 0.00 | 92 | 1022.6 |
| 20260906133126 | 70 | 5 | 1.7 | 2.6 | 0.00 | 0.00 | 0.00 | 93 | 1022.6 |
| 20260906132621 | 69 | 46 | 0.9 | 0.9 | 0.00 | 0.00 | 0.00 | 97 | 1022.6 |
| 20260906132117 | 68 | 41 | 1.7 | 1.7 | 0.00 | 0.00 | 0.00 | 99 | 1022.6 |
| 20260906131613 | 68 | 58 | 2.6 | 2.6 | 0.00 | 0.00 | 0.00 | 99 | 1022.6 |
| 20260906131108 | 67 | 36 | 0.0 | 0.9 | 0.00 | 0.00 | 0.00 | 99 | 1022.6 |
| 20260906130608 | 66 | 38 | 0.0 | 0.9 | 0.00 | 0.00 | 0.00 | 99 | 1022.6 |
| 20260906130103 | 66 | 351 | 0.0 | 0.0 | 0.00 | 0.00 | 0.00 | 99 | 1022.6 |
| 20260906125600 | 65 | 52 | 0.9 | 1.7 | 0.00 | 0.00 | 0.00 | 99 | 1022.6 |
| 20260906125054 | 64 | 318 | 0.9 | 0.9 | 0.00 | 0.00 | 0.00 | 99 | 1022.3 |
| 20260906124549 | 64 | 321 | 0.0 | 0.0 | 0.00 | 0.00 | 0.00 | 99 | 1022.3 |
| 20260906124044 | 64 | 321 | 0.0 | 0.9 | 0.00 | 0.00 | 0.00 | 99 | 1022.3 |
| 20260906123544 | 64 | 320 | 0.0 | 0.9 | 0.00 | 0.00 | 0.00 | 99 | 1022.3 |
| 20260906123040 | 63 | 320 | 0.0 | 0.9 | 0.00 | 0.00 | 0.00 | 99 | 1021.9 |
| 20260906122538 | 63 | 320 | 0.0 | 0.0 | 0.00 | 0.00 | 0.00 | 99 | 1021.9 |
| 20260906122035 | 63 | 321 | 0.0 | 0.0 | 0.00 | 0.00 | 0.00 | 99 | 1022.3 |
| 20260906121531 | 63 | 321 | 0.0 | 0.0 | 0.00 | 0.00 | 0.00 | 99 | 1021.9 |
| 20260906121027 | 62 | 321 | 0.0 | 0.0 | 0.00 | 0.00 | 0.00 | 99 | 1022.3 |
| 20260906120521 | 62 | 321 | 0.9 | 1.7 | 0.00 | 0.00 | 0.00 | 99 | 1021.9 |
| 20260906120020 | 62 | 322 | 0.0 | 0.0 | 0.00 | 0.00 | 0.00 | 99 | 1021.6 |
| 20260906115519 | 62 | 324 | 0.0 | 0.0 | 0.00 | 0.00 | 0.00 | 99 | 1021.6 |
| 20260906115014 | 62 | 324 | 0.0 | 0.0 | 0.00 | 0.00 | 0.00 | 99 | 1021.6 |
| 20260906114514 | 62 | 324 | 0.9 | 0.9 | 0.00 | 0.00 | 0.00 | 99 | 1021.6 |
| 20260906114010 | 63 | 324 | 0.0 | 0.0 | 0.00 | 0.00 | 0.00 | 99 | 1021.6 |
| 20260906113509 | 63 | 324 | 0.9 | 0.9 | 0.00 | 0.00 | 0.00 | 99 | 1021.6 |
| 20260906113004 | 63 | 325 | 0.0 | 0.9 | 0.00 | 0.00 | 0.00 | 99 | 1021.3 |
| 20260906112459 | 63 | 325 | 0.0 | 0.0 | 0.00 | 0.00 | 0.00 | 99 | 1021.3 |
| 20260906111955 | 63 | 325 | 0.0 | 0.0 | 0.00 | 0.00 | 0.00 | 99 | 1021.3 |
| 20260906111455 | 63 | 325 | 0.0 | 0.0 | 0.00 | 0.00 | 0.00 | 99 | 1021.3 |
| 20260906110955 | 63 | 325 | 0.9 | 0.9 | 0.00 | 0.00 | 0.00 | 99 | 1021.3 |
| 20260906110450 | 63 | 326 | 0.0 | 0.9 | 0.00 | 0.00 | 0.00 | 99 | 1020.8 |
| 20260906105949 | 63 | 327 | 0.0 | 0.0 | 0.00 | 0.00 | 0.00 | 99 | 1020.8 |
| 20260906105445 | 63 | 327 | 0.0 | 0.0 | 0.00 | 0.00 | 0.00 | 99 | 1021.3 |
| 20260906104941 | 63 | 330 | 0.0 | 0.0 | 0.00 | 0.00 | 0.00 | 99 | 1021.3 |
| 20260906104439 | 63 | 310 | 0.9 | 0.9 | 0.00 | 0.00 | 0.00 | 99 | 1020.8 |
| 20260906103939 | 63 | 320 | 0.9 | 0.9 | 0.00 | 0.00 | 0.00 | 99 | 1020.8 |
| 20260906103437 | 63 | 311 | 0.9 | 1.7 | 0.00 | 0.00 | 0.00 | 99 | 1020.8 |
| 20260906102932 | 63 | 291 | 1.7 | 1.7 | 0.00 | 0.00 | 0.00 | 99 | 1020.8 |
| 20260906102432 | 63 | 328 | 0.0 | 0.9 | 0.00 | 0.00 | 0.00 | 99 | 1020.8 |
| 20260906101927 | 63 | 318 | 0.9 | 0.9 | 0.00 | 0.00 | 0.00 | 99 | 1020.8 |
| 20260906101422 | 63 | 262 | 2.6 | 2.6 | 0.00 | 0.00 | 0.00 | 99 | 1020.8 |
| 20260906100918 | 63 | 310 | 0.9 | 0.9 | 0.00 | 0.00 | 0.00 | 99 | 1021.3 |
| 20260906100417 | 63 | 306 | 1.7 | 1.7 | 0.00 | 0.00 | 0.00 | 99 | 1021.3 |
| 20260906095912 | 63 | 291 | 1.7 | 2.6 | 0.00 | 0.00 | 0.00 | 99 | 1021.3 |
| 20260906095408 | 63 | 308 | 0.9 | 0.9 | 0.00 | 0.00 | 0.00 | 99 | 1020.8 |
| 20260906094908 | 63 | 307 | 0.9 | 0.9 | 0.00 | 0.00 | 0.00 | 99 | 1020.5 |
| 20260906094403 | 63 | 311 | 0.9 | 0.9 | 0.00 | 0.00 | 0.00 | 99 | 1020.5 |
| 20260906093853 | 63 | 295 | 1.7 | 1.7 | 0.00 | 0.00 | 0.00 | 99 | 1020.8 |
| 20260906093349 | 63 | 286 | 1.7 | 1.7 | 0.00 | 0.00 | 0.00 | 99 | 1020.8 |
| 20260906092849 | 63 | 296 | 1.7 | 1.7 | 0.00 | 0.00 | 0.00 | 99 | 1020.8 |
| 20260906092344 | 63 | 306 | 0.9 | 0.9 | 0.00 | 0.00 | 0.00 | 99 | 1020.8 |
| 20260906091839 | 63 | 327 | 1.7 | 2.6 | 0.00 | 0.00 | 0.00 | 99 | 1020.8 |
| 20260906091335 | 63 | 288 | 1.7 | 1.7 | 0.00 | 0.00 | 0.00 | 99 | 1020.8 |
| 20260906090832 | 63 | 310 | 0.9 | 1.7 | 0.00 | 0.00 | 0.00 | 99 | 1020.5 |
| 20260906090331 | 64 | 299 | 1.7 | 2.6 | 0.00 | 0.00 | 0.00 | 99 | 1020.8 |
| 20260906085830 | 64 | 277 | 1.7 | 1.7 | 0.00 | 0.00 | 0.00 | 99 | 1020.5 |
| 20260906085324 | 64 | 328 | 0.0 | 0.9 | 0.00 | 0.00 | 0.00 | 99 | 1020.5 |
| 20260906084818 | 64 | 328 | 0.0 | 0.9 | 0.00 | 0.00 | 0.00 | 99 | 1020.5 |
| 20260906084312 | 64 | 288 | 0.9 | 0.9 | 0.00 | 0.00 | 0.00 | 99 | 1020.5 |
| 20260906083807 | 64 | 309 | 0.9 | 0.9 | 0.00 | 0.00 | 0.00 | 99 | 1020.8 |
| 20260906083303 | 64 | 306 | 0.9 | 0.9 | 0.00 | 0.00 | 0.00 | 99 | 1020.8 |
| 20260906082803 | 64 | 289 | 1.7 | 2.6 | 0.00 | 0.00 | 0.00 | 99 | 1020.5 |
| 20260906082257 | 64 | 321 | 0.9 | 0.9 | 0.00 | 0.00 | 0.00 | 99 | 1020.5 |
| 20260906081754 | 64 | 311 | 0.9 | 1.7 | 0.00 | 0.00 | 0.00 | 99 | 1020.5 |
| 20260906081249 | 64 | 306 | 0.9 | 0.9 | 0.00 | 0.00 | 0.00 | 99 | 1020.5 |
| 20260906080746 | 64 | 319 | 0.9 | 0.9 | 0.00 | 0.00 | 0.00 | 99 | 1020.5 |
| 20260906080242 | 64 | 317 | 0.9 | 1.7 | 0.00 | 0.00 | 0.00 | 99 | 1020.5 |
| 20260906075741 | 64 | 316 | 1.7 | 1.7 | 0.00 | 0.00 | 0.00 | 99 | 1020.5 |
| 20260906075236 | 64 | 309 | 0.9 | 0.9 | 0.00 | 0.00 | 0.00 | 99 | 1020.5 |
| 20260906074731 | 64 | 302 | 0.9 | 1.7 | 0.00 | 0.00 | 0.00 | 99 | 1020.5 |
| 20260906074230 | 64 | 320 | 0.9 | 0.9 | 0.00 | 0.00 | 0.00 | 99 | 1020.5 |
| 20260906073724 | 64 | 306 | 0.9 | 0.9 | 0.00 | 0.00 | 0.00 | 99 | 1020.5 |
| 20260906073219 | 64 | 318 | 0.9 | 0.9 | 0.00 | 0.00 | 0.00 | 99 | 1020.5 |
| 20260906072715 | 64 | 316 | 0.9 | 0.9 | 0.00 | 0.00 | 0.00 | 99 | 1020.5 |
| 20260906072210 | 63 | 299 | 0.9 | 1.7 | 0.00 | 0.00 | 0.00 | 99 | 1020.5 |
| 20260906071706 | 63 | 330 | 0.0 | 0.0 | 0.00 | 0.00 | 0.00 | 99 | 1020.5 |
| 20260906071201 | 63 | 330 | 0.0 | 0.0 | 0.00 | 0.00 | 0.00 | 99 | 1020.1 |
| 20260906070657 | 63 | 321 | 0.9 | 1.7 | 0.00 | 0.00 | 0.00 | 99 | 1020.1 |
| 20260906070153 | 63 | 306 | 0.9 | 0.9 | 0.00 | 0.00 | 0.00 | 99 | 1020.1 |
| 20260906065652 | 63 | 315 | 0.9 | 0.9 | 0.00 | 0.00 | 0.00 | 99 | 1020.1 |
| 20260906065148 | 63 | 319 | 0.0 | 0.0 | 0.00 | 0.00 | 0.00 | 99 | 1020.5 |
| 20260906064643 | 63 | 315 | 0.9 | 0.9 | 0.00 | 0.00 | 0.00 | 99 | 1020.1 |
| 20260906064138 | 63 | 320 | 0.0 | 0.0 | 0.00 | 0.00 | 0.00 | 99 | 1020.5 |
| 20260906063633 | 63 | 316 | 0.9 | 0.9 | 0.00 | 0.00 | 0.00 | 99 | 1020.5 |
| 20260906063129 | 63 | 314 | 0.0 | 0.9 | 0.00 | 0.00 | 0.00 | 99 | 1020.5 |
| 20260906062625 | 63 | 311 | 0.0 | 0.0 | 0.00 | 0.00 | 0.00 | 99 | 1020.5 |
| 20260906062123 | 63 | 310 | 0.0 | 0.9 | 0.00 | 0.00 | 0.00 | 99 | 1020.5 |
| 20260906061620 | 63 | 310 | 0.9 | 0.9 | 0.00 | 0.00 | 0.00 | 99 | 1020.5 |
| 20260906061119 | 63 | 310 | 0.0 | 0.0 | 0.00 | 0.00 | 0.00 | 99 | 1020.5 |
| 20260906060616 | 63 | 314 | 0.0 | 0.0 | 0.00 | 0.00 | 0.00 | 99 | 1020.5 |
| 20260906060108 | 63 | 314 | 0.0 | 0.0 | 0.00 | 0.00 | 0.00 | 99 | 1020.5 |
| 20260906055603 | 63 | 315 | 0.9 | 0.9 | 0.00 | 0.00 | 0.00 | 99 | 1020.5 |
| 20260906055058 | 63 | 321 | 0.9 | 0.9 | 0.00 | 0.00 | 0.00 | 99 | 1020.5 |
| 20260906054552 | 63 | 319 | 0.0 | 0.0 | 0.00 | 0.00 | 0.00 | 99 | 1020.1 |
| 20260906054047 | 63 | 328 | 0.9 | 0.9 | 0.00 | 0.00 | 0.00 | 99 | 1020.1 |
| 20260906053544 | 63 | 325 | 0.0 | 0.9 | 0.00 | 0.00 | 0.00 | 99 | 1020.1 |
| 20260906053039 | 63 | 318 | 0.0 | 0.9 | 0.00 | 0.00 | 0.00 | 99 | 1020.1 |
| 20260906052534 | 63 | 316 | 0.0 | 0.0 | 0.00 | 0.00 | 0.00 | 99 | 1020.1 |
| 20260906052031 | 63 | 320 | 0.0 | 0.9 | 0.00 | 0.00 | 0.00 | 99 | 1020.1 |
| 20260906051527 | 63 | 306 | 0.0 | 0.9 | 0.00 | 0.00 | 0.00 | 99 | 1020.1 |
| 20260906051023 | 63 | 305 | 0.9 | 1.7 | 0.00 | 0.00 | 0.00 | 99 | 1019.8 |
| 20260906050518 | 63 | 288 | 0.9 | 1.7 | 0.00 | 0.00 | 0.00 | 99 | 1020.1 |
| 20260906050013 | 63 | 309 | 0.0 | 0.9 | 0.00 | 0.00 | 0.00 | 99 | 1020.1 |
| 20260906045511 | 62 | 311 | 0.0 | 0.0 | 0.00 | 0.00 | 0.00 | 99 | 1019.8 |
| 20260906045007 | 62 | 311 | 0.9 | 0.9 | 0.00 | 0.00 | 0.00 | 99 | 1019.8 |
| 20260906044502 | 63 | 311 | 0.0 | 0.0 | 0.00 | 0.00 | 0.00 | 99 | 1019.8 |
| 20260906043957 | 63 | 311 | 0.0 | 0.0 | 0.00 | 0.00 | 0.00 | 99 | 1020.1 |
| 20260906043453 | 63 | 311 | 0.0 | 0.0 | 0.00 | 0.00 | 0.00 | 99 | 1020.1 |
| 20260906042949 | 63 | 313 | 0.9 | 0.9 | 0.00 | 0.00 | 0.00 | 99 | 1020.1 |
| 20260906042448 | 63 | 313 | 0.0 | 0.0 | 0.00 | 0.00 | 0.00 | 99 | 1020.1 |
| 20260906041947 | 63 | 314 | 0.0 | 0.9 | 0.00 | 0.00 | 0.00 | 99 | 1020.1 |
| 20260906041444 | 63 | 315 | 0.9 | 0.9 | 0.00 | 0.00 | 0.00 | 99 | 1020.1 |
| 20260906040943 | 63 | 317 | 0.0 | 0.0 | 0.00 | 0.00 | 0.00 | 99 | 1019.8 |
| 20260906040438 | 63 | 319 | 0.0 | 0.0 | 0.00 | 0.00 | 0.00 | 99 | 1019.5 |
| 20260906035933 | 63 | 319 | 0.9 | 0.9 | 0.00 | 0.00 | 0.00 | 99 | 1019.8 |
| 20260906035429 | 63 | 323 | 0.0 | 0.0 | 0.00 | 0.00 | 0.00 | 99 | 1019.5 |
| 20260906034924 | 63 | 324 | 0.0 | 0.0 | 0.00 | 0.00 | 0.00 | 99 | 1019.8 |
| 20260906034419 | 63 | 324 | 0.0 | 0.9 | 0.00 | 0.00 | 0.00 | 99 | 1019.8 |
| 20260906033915 | 63 | 324 | 0.0 | 0.0 | 0.00 | 0.00 | 0.00 | 99 | 1019.8 |
| 20260906033414 | 63 | 325 | 0.9 | 0.9 | 0.00 | 0.00 | 0.00 | 99 | 1019.8 |
| 20260906032911 | 63 | 325 | 0.0 | 0.9 | 0.00 | 0.00 | 0.00 | 99 | 1019.8 |
| 20260906032407 | 63 | 325 | 0.0 | 0.0 | 0.00 | 0.00 | 0.00 | 99 | 1019.8 |
| 20260906031906 | 64 | 325 | 0.0 | 0.0 | 0.00 | 0.00 | 0.00 | 99 | 1019.8 |
| 20260906031402 | 64 | 325 | 0.0 | 0.9 | 0.00 | 0.00 | 0.00 | 99 | 1019.8 |
| 20260906030858 | 64 | 316 | 0.9 | 0.9 | 0.00 | 0.00 | 0.00 | 99 | 1019.5 |
| 20260906030352 | 64 | 319 | 0.0 | 0.0 | 0.00 | 0.00 | 0.00 | 99 | 1019.8 |
| 20260906025847 | 64 | 319 | 0.0 | 0.0 | 0.00 | 0.00 | 0.00 | 99 | 1019.8 |
| 20260906025341 | 64 | 319 | 0.0 | 0.0 | 0.00 | 0.00 | 0.00 | 99 | 1019.8 |
| 20260906024840 | 64 | 318 | 0.0 | 0.0 | 0.00 | 0.00 | 0.00 | 99 | 1019.8 |
| 20260906024339 | 64 | 314 | 0.0 | 0.0 | 0.00 | 0.00 | 0.00 | 99 | 1019.8 |
| 20260906023835 | 64 | 313 | 0.0 | 0.9 | 0.00 | 0.00 | 0.00 | 99 | 1019.8 |
| 20260906023331 | 64 | 313 | 0.0 | 0.9 | 0.00 | 0.00 | 0.00 | 99 | 1019.8 |
| 20260906022826 | 65 | 312 | 0.0 | 0.0 | 0.00 | 0.00 | 0.00 | 99 | 1019.8 |
| 20260906022321 | 65 | 335 | 0.0 | 0.9 | 0.00 | 0.00 | 0.00 | 99 | 1019.5 |
| 20260906021817 | 65 | 81 | 0.0 | 0.0 | 0.00 | 0.00 | 0.00 | 99 | 1019.5 |
| 20260906021316 | 65 | 82 | 0.0 | 0.0 | 0.00 | 0.00 | 0.00 | 99 | 1019.5 |
| 20260906020815 | 66 | 217 | 0.9 | 1.7 | 0.00 | 0.00 | 0.00 | 99 | 1019.5 |
| 20260906020316 | 65 | 323 | 0.0 | 0.9 | 0.00 | 0.00 | 0.00 | 99 | 1019.1 |
| 20260906015816 | 65 | 323 | 0.0 | 0.0 | 0.00 | 0.00 | 0.00 | 99 | 1019.5 |
| 20260906015315 | 65 | 323 | 0.0 | 0.0 | 0.00 | 0.00 | 0.00 | 99 | 1019.5 |
| 20260906014814 | 65 | 323 | 0.0 | 0.0 | 0.00 | 0.00 | 0.00 | 99 | 1019.5 |
| 20260906014310 | 66 | 323 | 0.0 | 0.0 | 0.00 | 0.00 | 0.00 | 99 | 1019.5 |
| 20260906013806 | 66 | 323 | 0.0 | 0.0 | 0.00 | 0.00 | 0.00 | 99 | 1019.5 |
| 20260906013300 | 66 | 323 | 0.0 | 0.0 | 0.00 | 0.00 | 0.00 | 99 | 1019.1 |
| 20260906012756 | 66 | 323 | 0.0 | 0.0 | 0.00 | 0.00 | 0.00 | 99 | 1019.1 |
| 20260906012251 | 66 | 323 | 0.0 | 0.0 | 0.00 | 0.00 | 0.00 | 99 | 1019.1 |
| 20260906011746 | 67 | 323 | 0.0 | 0.0 | 0.00 | 0.00 | 0.00 | 99 | 1019.1 |
| 20260906011246 | 67 | 323 | 0.0 | 0.0 | 0.00 | 0.00 | 0.00 | 99 | 1019.1 |
| 20260906010742 | 67 | 323 | 0.0 | 0.0 | 0.00 | 0.00 | 0.00 | 99 | 1019.5 |
| 20260906010238 | 67 | 323 | 0.0 | 0.0 | 0.00 | 0.00 | 0.00 | 99 | 1019.5 |
| 20260906005733 | 68 | 323 | 0.0 | 0.0 | 0.00 | 0.00 | 0.00 | 99 | 1019.5 |
| 20260906005232 | 68 | 323 | 0.0 | 0.0 | 0.00 | 0.00 | 0.00 | 99 | 1019.5 |
| 20260906004731 | 69 | 323 | 0.0 | 0.0 | 0.00 | 0.00 | 0.00 | 99 | 1019.5 |
| 20260906004226 | 69 | 323 | 0.0 | 0.0 | 0.00 | 0.00 | 0.00 | 99 | 1019.1 |
| 20260906003721 | 69 | 323 | 0.0 | 0.0 | 0.00 | 0.00 | 0.00 | 99 | 1019.1 |
| 20260906003217 | 69 | 323 | 0.0 | 0.0 | 0.00 | 0.00 | 0.00 | 98 | 1019.1 |
| 20260906002717 | 70 | 323 | 0.9 | 0.9 | 0.00 | 0.00 | 0.00 | 98 | 1019.5 |
| 20260906002212 | 70 | 323 | 0.0 | 0.9 | 0.00 | 0.00 | 0.00 | 98 | 1019.5 |
| 20260906001707 | 70 | 323 | 0.9 | 0.9 | 0.00 | 0.00 | 0.00 | 98 | 1019.5 |
| 20260906001207 | 70 | 328 | 0.9 | 0.9 | 0.00 | 0.00 | 0.00 | 98 | 1019.5 |
| 20260906000703 | 70 | 328 | 0.0 | 0.0 | 0.00 | 0.00 | 0.00 | 98 | 1019.1 |
| 20260906000158 | 70 | 328 | 0.0 | 0.9 | 0.00 | 0.00 | 0.00 | 98 | 1019.5 |
| 20260905235657 | 70 | 305 | 2.6 | 4.3 | 0.00 | 0.00 | 0.00 | 98 | 1019.5 |
| 20260905235152 | 70 | 309 | 2.6 | 2.6 | 0.00 | 0.00 | 0.00 | 98 | 1019.5 |
| 20260905234647 | 70 | 321 | 1.7 | 1.7 | 0.00 | 0.00 | 0.00 | 97 | 1019.5 |
| 20260905234142 | 70 | 314 | 1.7 | 1.7 | 0.00 | 0.00 | 0.00 | 98 | 1019.5 |
| 20260905233637 | 70 | 333 | 0.0 | 0.9 | 0.00 | 0.00 | 0.00 | 98 | 1019.8 |
| 20260905233137 | 70 | 326 | 0.0 | 0.9 | 0.00 | 0.00 | 0.00 | 98 | 1019.5 |
| 20260905232632 | 70 | 326 | 0.0 | 0.9 | 0.00 | 0.00 | 0.00 | 98 | 1019.5 |
| 20260905232128 | 70 | 283 | 1.7 | 1.7 | 0.00 | 0.00 | 0.00 | 98 | 1019.5 |
| 20260905231623 | 70 | 338 | 0.9 | 0.9 | 0.00 | 0.00 | 0.00 | 98 | 1019.5 |
| 20260905231119 | 70 | 347 | 0.9 | 0.9 | 0.00 | 0.00 | 0.00 | 98 | 1019.5 |
| 20260905230615 | 70 | 293 | 0.0 | 0.0 | 0.00 | 0.00 | 0.00 | 98 | 1019.5 |
| 20260905230113 | 70 | 300 | 0.9 | 0.9 | 0.00 | 0.00 | 0.00 | 98 | 1019.5 |
| 20260905225612 | 70 | 294 | 2.6 | 2.6 | 0.00 | 0.00 | 0.00 | 99 | 1019.1 |
| 20260905225107 | 71 | 353 | 0.0 | 0.9 | 0.00 | 0.00 | 0.00 | 99 | 1019.5 |
| 20260905224601 | 71 | 301 | 2.6 | 2.6 | 0.00 | 0.00 | 0.00 | 98 | 1019.1 |
| 20260905224101 | 71 | 257 | 1.7 | 4.3 | 0.00 | 0.00 | 0.00 | 98 | 1019.1 |
| 20260905223558 | 71 | 354 | 0.0 | 0.0 | 0.00 | 0.00 | 0.00 | 98 | 1019.1 |
| 20260905223054 | 71 | 316 | 2.6 | 2.6 | 0.00 | 0.00 | 0.00 | 98 | 1019.1 |
| 20260905222554 | 71 | 290 | 5.2 | 6.1 | 0.00 | 0.00 | 0.00 | 98 | 1019.1 |
| 20260905222049 | 72 | 330 | 4.3 | 5.2 | 0.00 | 0.00 | 0.00 | 98 | 1018.8 |
| 20260905221545 | 72 | 284 | 0.9 | 0.9 | 0.00 | 0.00 | 0.00 | 98 | 1018.8 |
| 20260905221041 | 72 | 301 | 2.6 | 2.6 | 0.00 | 0.00 | 0.00 | 98 | 1019.1 |
| 20260905220537 | 72 | 306 | 3.5 | 4.3 | 0.00 | 0.00 | 0.00 | 98 | 1018.8 |
| 20260905220033 | 72 | 330 | 1.7 | 2.6 | 0.00 | 0.00 | 0.00 | 98 | 1018.8 |
| 20260905215532 | 72 | 48 | 2.6 | 4.3 | 0.00 | 0.00 | 0.00 | 98 | 1018.8 |
| 20260905215028 | 72 | 40 | 0.9 | 1.7 | 0.00 | 0.00 | 0.00 | 99 | 1018.8 |
| 20260905214524 | 72 | 49 | 0.9 | 0.9 | 0.00 | 0.00 | 0.00 | 99 | 1018.8 |
| 20260905214019 | 71 | 277 | 1.7 | 2.6 | 0.00 | 0.00 | 0.00 | 98 | 1018.4 |
| 20260905213514 | 71 | 309 | 2.6 | 2.6 | 0.00 | 0.00 | 0.00 | 98 | 1018.8 |
| 20260905213010 | 72 | 325 | 1.7 | 1.7 | 0.00 | 0.00 | 0.00 | 99 | 1018.8 |
| 20260905212504 | 72 | 330 | 0.9 | 0.9 | 0.00 | 0.00 | 0.00 | 98 | 1018.8 |
| 20260905212003 | 72 | 269 | 1.7 | 2.6 | 0.00 | 0.00 | 0.00 | 98 | 1018.8 |
| 20260905211459 | 72 | 332 | 1.7 | 2.6 | 0.00 | 0.00 | 0.00 | 99 | 1018.8 |
| 20260905210955 | 72 | 310 | 2.6 | 4.3 | 0.00 | 0.00 | 0.00 | 99 | 1018.8 |
| 20260905210450 | 72 | 308 | 1.7 | 1.7 | 0.00 | 0.00 | 0.00 | 98 | 1019.1 |
| 20260905205949 | 72 | 315 | 0.9 | 0.9 | 0.00 | 0.00 | 0.00 | 98 | 1018.8 |
| 20260905205444 | 72 | 328 | 0.9 | 0.9 | 0.00 | 0.00 | 0.00 | 98 | 1018.8 |
| 20260905204943 | 72 | 268 | 3.5 | 5.2 | 0.00 | 0.00 | 0.00 | 98 | 1018.8 |
| 20260905204439 | 72 | 334 | 0.9 | 0.9 | 0.00 | 0.00 | 0.00 | 98 | 1018.8 |
| 20260905203938 | 72 | 299 | 0.9 | 0.9 | 0.00 | 0.00 | 0.00 | 98 | 1018.8 |
| 20260905203434 | 72 | 324 | 0.9 | 0.9 | 0.00 | 0.00 | 0.00 | 98 | 1018.8 |
| 20260905202929 | 73 | 318 | 0.9 | 0.9 | 0.00 | 0.00 | 0.00 | 99 | 1018.8 |
| 20260905202425 | 72 | 359 | 0.9 | 0.9 | 0.00 | 0.00 | 0.00 | 99 | 1018.8 |
| 20260905201920 | 72 | 358 | 0.9 | 0.9 | 0.00 | 0.00 | 0.00 | 99 | 1018.8 |
| 20260905201416 | 71 | 330 | 0.9 | 0.9 | 0.00 | 0.00 | 0.00 | 99 | 1018.8 |
| 20260905200915 | 71 | 277 | 2.6 | 2.6 | 0.00 | 0.00 | 0.00 | 99 | 1018.8 |
| 20260905200411 | 71 | 273 | 2.6 | 2.6 | 0.00 | 0.00 | 0.00 | 99 | 1018.8 |
| 20260905195908 | 71 | 356 | 0.0 | 0.0 | 0.00 | 0.00 | 0.00 | 99 | 1018.8 |
| 20260905195404 | 71 | 320 | 1.7 | 2.6 | 0.00 | 0.00 | 0.00 | 99 | 1018.8 |
| 20260905194900 | 71 | 295 | 0.9 | 1.7 | 0.00 | 0.00 | 0.00 | 99 | 1018.8 |
| 20260905194359 | 71 | 308 | 1.7 | 1.7 | 0.00 | 0.00 | 0.00 | 99 | 1018.8 |
| 20260905193853 | 71 | 326 | 0.0 | 0.9 | 0.00 | 0.00 | 0.00 | 99 | 1018.8 |
| 20260905193348 | 71 | 282 | 1.7 | 1.7 | 0.00 | 0.00 | 0.00 | 99 | 1019.1 |
| 20260905192844 | 71 | 308 | 1.7 | 1.7 | 0.00 | 0.00 | 0.00 | 99 | 1018.8 |
| 20260905192339 | 72 | 328 | 0.0 | 0.9 | 0.00 | 0.00 | 0.00 | 99 | 1019.1 |
| 20260905191838 | 72 | 274 | 1.7 | 2.6 | 0.00 | 0.00 | 0.00 | 99 | 1018.8 |
| 20260905191338 | 72 | 290 | 0.0 | 0.9 | 0.00 | 0.00 | 0.00 | 99 | 1018.8 |
| 20260905190837 | 72 | 239 | 2.6 | 4.3 | 0.00 | 0.00 | 0.00 | 99 | 1018.8 |
| 20260905190331 | 72 | 320 | 0.9 | 4.3 | 0.00 | 0.00 | 0.00 | 99 | 1019.1 |
| 20260905185829 | 72 | 333 | 1.7 | 2.6 | 0.00 | 0.00 | 0.00 | 99 | 1018.8 |
| 20260905185325 | 72 | 319 | 1.7 | 1.7 | 0.00 | 0.00 | 0.00 | 99 | 1018.8 |
| 20260905184818 | 73 | 257 | 3.5 | 5.2 | 0.00 | 0.00 | 0.00 | 99 | 1018.8 |
| 20260905184317 | 73 | 298 | 1.7 | 1.7 | 0.00 | 0.00 | 0.00 | 99 | 1018.8 |
| 20260905183815 | 73 | 295 | 5.2 | 8.7 | 0.00 | 0.00 | 0.00 | 99 | 1018.8 |
| 20260905183311 | 73 | 275 | 4.3 | 6.1 | 0.00 | 0.00 | 0.00 | 99 | 1018.8 |
| 20260905182806 | 74 | 314 | 2.6 | 2.6 | 0.00 | 0.00 | 0.00 | 98 | 1018.8 |
| 20260905182306 | 74 | 355 | 0.0 | 0.0 | 0.00 | 0.00 | 0.00 | 99 | 1018.8 |
| 20260905181802 | 73 | 256 | 1.7 | 1.7 | 0.00 | 0.00 | 0.00 | 99 | 1018.8 |
| 20260905181300 | 73 | 312 | 2.6 | 2.6 | 0.00 | 0.00 | 0.00 | 99 | 1018.8 |
| 20260905180754 | 73 | 339 | 3.5 | 5.2 | 0.00 | 0.00 | 0.00 | 99 | 1018.8 |
| 20260905180249 | 73 | 316 | 0.9 | 2.6 | 0.00 | 0.00 | 0.00 | 99 | 1018.8 |
| 20260905175744 | 74 | 289 | 2.6 | 4.3 | 0.00 | 0.00 | 0.00 | 99 | 1018.8 |
| 20260905175239 | 74 | 303 | 4.3 | 6.1 | 0.00 | 0.00 | 0.00 | 99 | 1018.8 |
| 20260905174734 | 74 | 330 | 2.6 | 4.3 | 0.00 | 0.00 | 0.00 | 99 | 1019.1 |
| 20260905174229 | 74 | 237 | 3.5 | 5.2 | 0.00 | 0.00 | 0.00 | 99 | 1018.4 |
| 20260905173720 | 74 | 277 | 3.5 | 4.3 | 0.00 | 0.00 | 0.00 | 99 | 1018.8 |
| 20260905173215 | 74 | 337 | 0.9 | 1.7 | 0.00 | 0.00 | 0.00 | 99 | 1018.8 |
| 20260905172709 | 74 | 247 | 2.6 | 2.6 | 0.00 | 0.00 | 0.00 | 99 | 1018.8 |
| 20260905172203 | 74 | 305 | 2.6 | 2.6 | 0.00 | 0.00 | 0.00 | 98 | 1018.8 |
| 20260905171659 | 75 | 319 | 0.9 | 1.7 | 0.00 | 0.00 | 0.00 | 98 | 1018.8 |
| 20260905171155 | 75 | 323 | 1.7 | 1.7 | 0.00 | 0.00 | 0.00 | 97 | 1018.8 |
| 20260905170652 | 75 | 335 | 2.6 | 4.3 | 0.00 | 0.00 | 0.00 | 96 | 1018.8 |
| 20260905170147 | 75 | 258 | 4.3 | 7.8 | 0.00 | 0.00 | 0.00 | 96 | 1018.8 |
| 20260905165646 | 75 | 329 | 0.9 | 0.9 | 0.00 | 0.00 | 0.00 | 96 | 1018.8 |
| 20260905165142 | 76 | 267 | 2.6 | 4.3 | 0.00 | 0.00 | 0.00 | 95 | 1018.8 |
| 20260905164636 | 76 | 253 | 1.7 | 1.7 | 0.00 | 0.00 | 0.00 | 95 | 1018.4 |
| 20260905164136 | 75 | 357 | 2.6 | 2.6 | 0.00 | 0.00 | 0.00 | 95 | 1018.8 |
| 20260905163632 | 75 | 294 | 1.7 | 2.6 | 0.00 | 0.00 | 0.00 | 96 | 1018.8 |
| 20260905163128 | 74 | 19 | 0.9 | 1.7 | 0.00 | 0.00 | 0.00 | 97 | 1018.8 |
| 20260905162624 | 74 | 316 | 1.7 | 1.7 | 0.00 | 0.00 | 0.00 | 98 | 1018.8 |
| 20260905162123 | 74 | 300 | 1.7 | 1.7 | 0.00 | 0.00 | 0.00 | 97 | 1018.8 |
| 20260905161623 | 74 | 345 | 0.9 | 1.7 | 0.00 | 0.00 | 0.00 | 98 | 1018.8 |
| 20260905161121 | 73 | 264 | 1.7 | 1.7 | 0.00 | 0.00 | 0.00 | 98 | 1018.8 |
| 20260905160620 | 73 | 306 | 6.1 | 7.8 | 0.00 | 0.00 | 0.00 | 98 | 1018.8 |
| 20260905160115 | 74 | 285 | 0.9 | 0.9 | 0.00 | 0.00 | 0.00 | 98 | 1019.1 |
| 20260905155609 | 73 | 323 | 0.9 | 0.9 | 0.00 | 0.00 | 0.00 | 98 | 1018.8 |
| 20260905155108 | 73 | 342 | 1.7 | 2.6 | 0.00 | 0.00 | 0.00 | 98 | 1018.8 |
| 20260905154608 | 73 | 316 | 0.9 | 0.9 | 0.00 | 0.00 | 0.00 | 98 | 1018.8 |
| 20260905154104 | 73 | 329 | 2.6 | 2.6 | 0.00 | 0.00 | 0.00 | 98 | 1018.8 |
| 20260905153559 | 73 | 301 | 4.3 | 6.1 | 0.00 | 0.00 | 0.00 | 97 | 1018.4 |
| 20260905153054 | 74 | 308 | 6.1 | 7.8 | 0.00 | 0.00 | 0.00 | 97 | 1018.4 |
| 20260905152549 | 74 | 299 | 1.7 | 1.7 | 0.00 | 0.00 | 0.00 | 97 | 1018.4 |
| 20260905152044 | 74 | 252 | 0.9 | 1.7 | 0.00 | 0.00 | 0.00 | 97 | 1018.4 |
| 20260905151539 | 75 | 290 | 2.6 | 2.6 | 0.00 | 0.00 | 0.00 | 97 | 1018.1 |
| 20260905151034 | 75 | 310 | 0.9 | 0.9 | 0.00 | 0.00 | 0.00 | 98 | 1018.1 |
| 20260905150530 | 74 | 51 | 0.9 | 0.9 | 0.00 | 0.00 | 0.00 | 99 | 1018.4 |
| 20260905150028 | 73 | 298 | 1.7 | 2.6 | 0.00 | 0.00 | 0.00 | 99 | 1018.4 |